This demonstration page uses our WeatherBlox Daily Observations layout. Learn more.

Left ArrowRight Arrow

34.02893, -84.19858

Hourly Observations for October 19, 2015

Temp ( °F °C ) Dew Point ( °F °C ) Humidity (%) Winds ( mph kmh ) Pressure ( in mb ) Visibility ( mi km ) Precip ( " mm )
12:53 am 00:53 Clear 43 6.1 41 5 93 93 Calm 30.40 1029 10 16 0.00 0.00
1:53 am 01:53 Clear 43 6.1 40 4.4 89 89 Calm 30.40 1030 10 16 0.00 0.00
2:53 am 02:53 Clear 42 5.6 40 4.4 92 92 Calm 30.41 1030 10 16 0.00 0.00
3:53 am 03:53 Clear 45 7.2 41 5 86 86 VRB 3 6 30.42 1030 10 16 0.00 0.00
4:53 am 04:53 Clear 45 7.2 40 4.4 83 83 E 5 7 30.42 1030 10 16 0.00 0.00
5:53 am 05:53 Clear 45 7.2 36 2.2 71 71 VRB 6 9 30.43 1031 10 16 0.00 0.00
6:53 am 06:53 Clear 45 7.2 35 1.7 68 68 VRB 6 9 30.45 1031 10 16 0.00 0.00
7:53 am 07:53 Sunny 44 6.7 35 1.7 71 71 E 6 9 30.47 1032 10 16 0.00 0.00
8:53 am 08:53 Sunny 46 7.8 34 1.1 63 63 ENE 7 11 30.49 1033 10 16 0.00 0.00
9:53 am 09:53 Sunny 49 9.4 34 1.1 56 56 ENE 8 13 30.51 1033 10 16 0.00 0.00
10:53 am 10:53 Sunny 53 11.7 35 1.7 51 51 ESE 9 15 30.52 1034 10 16 0.00 0.00
11:53 am 11:53 Sunny 57 13.9 34 1.1 42 42 NE 8 13 30.51 1033 10 16 0.00 0.00
12:53 pm 12:53 Sunny 59 15 33 0.6 38 38 VRB 7 11 30.50 1033 10 16 0.00 0.00
1:53 pm 13:53 Sunny 61 16.1 35 1.7 38 38 VRB 6 9 30.46 1032 10 16 0.00 0.00
2:53 pm 14:53 Sunny 62 16.7 35 1.7 37 37 VRB 6 9 30.43 1031 10 16 0.00 0.00
3:53 pm 15:53 Sunny 63 17.2 35 1.7 35 35 undefined N/A 30.40 1030 10 16 0.00 0.00
4:53 pm 16:53 Sunny 62 16.7 35 1.7 37 37 ESE 6 9 30.39 1029 10 16 0.00 0.00
5:53 pm 17:53 Sunny 61 16.1 36 2.2 39 39 E 5 7 30.39 1029 10 16 0.00 0.00
6:53 pm 18:53 Sunny 57 13.9 38 3.3 49 49 Calm 30.38 1029 10 16 0.00 0.00
7:53 pm 19:53 Clear 54 12.2 39 3.9 57 57 ESE 3 6 30.39 1029 10 16 0.00 0.00
8:53 pm 20:53 Clear 50 10 40 4.4 68 68 E 3 6 30.40 1030 10 16 0.00 0.00
9:53 pm 21:53 Clear 50 10 40 4.4 68 68 E 5 7 30.40 1029 10 16 0.00 0.00
10:53 pm 22:53 Clear 49 9.4 39 3.9 69 69 E 3 6 30.40 1030 10 16 0.00 0.00
11:53 pm 23:53 Clear 48 8.9 39 3.9 71 71 E 3 6 30.40 1030 10 16 0.00 0.00

Powered by AerisWeather